Year,Month,Day,Hour,Minute,Value (Times are PST for temperature in C)
2012,05,29,00,00,9.80
2012,05,29,00,02,9.70
2012,05,29,00,04,9.70
2012,05,29,00,05,9.70
2012,05,29,00,06,9.70
2012,05,29,00,07,9.70
2012,05,29,00,09,9.70
2012,05,29,00,10,9.60
2012,05,29,00,11,9.60
2012,05,29,00,13,9.60
2012,05,29,00,14,9.60
2012,05,29,00,15,9.60
2012,05,29,00,17,9.60
2012,05,29,00,18,9.50
2012,05,29,00,19,9.50
2012,05,29,00,20,9.50
2012,05,29,00,22,9.50
2012,05,29,00,23,9.40
2012,05,29,00,24,9.40
2012,05,29,00,26,9.40
2012,05,29,00,27,9.40
2012,05,29,00,28,9.40
2012,05,29,00,29,9.40
2012,05,29,00,30,9.40
2012,05,29,00,32,9.40
2012,05,29,00,33,9.40
2012,05,29,00,34,9.30
2012,05,29,00,36,9.30
2012,05,29,00,37,9.30
2012,05,29,00,38,9.30
2012,05,29,00,39,9.30
2012,05,29,00,41,9.30
2012,05,29,00,42,9.20
2012,05,29,00,43,9.20
2012,05,29,00,45,9.20
2012,05,29,00,46,9.20
2012,05,29,00,47,9.20
2012,05,29,00,48,9.20
2012,05,29,00,50,9.20
2012,05,29,00,51,9.20
2012,05,29,00,52,9.10
2012,05,29,00,54,9.10
2012,05,29,00,55,9.10
2012,05,29,00,56,9.10
2012,05,29,00,57,9.10
2012,05,29,00,59,9.10
2012,05,29,01,00,9.00
2012,05,29,01,01,9.00
2012,05,29,01,02,8.90
2012,05,29,01,04,8.90
2012,05,29,01,05,8.90
2012,05,29,01,06,8.90
2012,05,29,01,07,8.90
2012,05,29,01,08,8.90
2012,05,29,01,09,8.90
2012,05,29,01,10,8.90
2012,05,29,01,11,8.90
2012,05,29,01,13,8.90
2012,05,29,01,14,8.80
2012,05,29,01,15,8.80
2012,05,29,01,16,8.80
2012,05,29,01,18,8.80
2012,05,29,01,19,8.80
2012,05,29,01,20,8.80
2012,05,29,01,22,8.80
2012,05,29,01,23,8.80
2012,05,29,01,24,8.80
2012,05,29,01,25,8.80
2012,05,29,01,27,8.70
2012,05,29,01,28,8.70
2012,05,29,01,29,8.70
2012,05,29,01,30,8.70
2012,05,29,01,31,8.70
2012,05,29,01,32,8.70
2012,05,29,01,33,8.70
2012,05,29,01,34,8.70
2012,05,29,01,35,8.70
2012,05,29,01,37,8.60
2012,05,29,01,38,8.60
2012,05,29,01,39,8.60
2012,05,29,01,40,8.60
2012,05,29,01,42,8.60
2012,05,29,01,43,8.70
2012,05,29,01,44,8.70
2012,05,29,01,45,8.70
2012,05,29,01,46,8.70
2012,05,29,01,47,8.70
2012,05,29,01,48,8.70
2012,05,29,01,49,8.70
2012,05,29,01,50,8.70
2012,05,29,01,52,8.70
2012,05,29,01,53,8.60
2012,05,29,01,54,8.60
2012,05,29,01,55,8.60
2012,05,29,01,56,8.60
2012,05,29,01,57,8.60
2012,05,29,01,58,8.60
2012,05,29,01,59,8.60
2012,05,29,02,00,8.60
2012,05,29,02,01,8.60
2012,05,29,02,02,8.50
2012,05,29,02,03,8.50
2012,05,29,02,04,8.50
2012,05,29,02,05,8.40
2012,05,29,02,06,8.40
2012,05,29,02,07,8.50
2012,05,29,02,08,8.50
2012,05,29,02,09,8.40
2012,05,29,02,10,8.40
2012,05,29,02,12,8.40
2012,05,29,02,13,8.40
2012,05,29,02,14,8.40
2012,05,29,02,16,8.40
2012,05,29,02,17,8.40
2012,05,29,02,18,8.40
2012,05,29,02,19,8.40
2012,05,29,02,20,8.30
2012,05,29,02,21,8.30
2012,05,29,02,22,8.30
2012,05,29,02,23,8.30
2012,05,29,02,24,8.30
2012,05,29,02,26,8.30
2012,05,29,02,27,8.30
2012,05,29,02,28,8.30
2012,05,29,02,29,8.30
2012,05,29,02,31,8.30
2012,05,29,02,32,8.30
2012,05,29,02,33,8.30
2012,05,29,02,34,8.30
2012,05,29,02,35,8.30
2012,05,29,02,36,8.20
2012,05,29,02,37,8.20
2012,05,29,02,38,8.20
2012,05,29,02,39,8.20
2012,05,29,02,41,8.20
2012,05,29,02,42,8.20
2012,05,29,02,43,8.20
2012,05,29,02,44,8.20
2012,05,29,02,46,8.20
2012,05,29,02,47,8.20
2012,05,29,02,48,8.20
2012,05,29,02,50,8.20
2012,05,29,02,51,8.20
2012,05,29,02,52,8.20
2012,05,29,02,53,8.20
2012,05,29,02,54,8.20
2012,05,29,02,55,8.20
2012,05,29,02,56,8.20
2012,05,29,02,57,8.20
2012,05,29,02,59,8.20
2012,05,29,03,00,8.20
2012,05,29,03,01,8.20
2012,05,29,03,02,8.20
2012,05,29,03,04,8.20
2012,05,29,03,05,8.20
2012,05,29,03,06,8.20
2012,05,29,03,08,8.20
2012,05,29,03,09,8.20
2012,05,29,03,10,8.20
2012,05,29,03,11,8.20
2012,05,29,03,13,8.20
2012,05,29,03,14,8.20
2012,05,29,03,15,8.20
2012,05,29,03,16,8.20
2012,05,29,03,17,8.20
2012,05,29,03,19,8.20
2012,05,29,03,20,8.20
2012,05,29,03,21,8.20
2012,05,29,03,22,8.10
2012,05,29,03,24,8.10
2012,05,29,03,25,8.10
2012,05,29,03,26,8.10
2012,05,29,03,27,8.10
2012,05,29,03,29,8.10
2012,05,29,03,30,8.00
2012,05,29,03,31,8.00
2012,05,29,03,33,8.00
2012,05,29,03,34,8.00
2012,05,29,03,35,8.00
2012,05,29,03,36,8.00
2012,05,29,03,37,8.00
2012,05,29,03,39,8.00
2012,05,29,03,40,8.00
2012,05,29,03,41,7.90
2012,05,29,03,42,7.90
2012,05,29,03,44,7.90
2012,05,29,03,45,7.90
2012,05,29,03,46,7.90
2012,05,29,03,47,7.90
2012,05,29,03,48,7.90
2012,05,29,03,50,7.90
2012,05,29,03,51,7.90
2012,05,29,03,52,7.90
2012,05,29,03,53,7.90
2012,05,29,03,55,7.90
2012,05,29,03,56,7.90
2012,05,29,03,57,7.80
2012,05,29,03,58,7.90
2012,05,29,04,00,7.80
2012,05,29,04,01,7.80
2012,05,29,04,02,7.80
2012,05,29,04,03,7.80
2012,05,29,04,04,7.80
2012,05,29,04,06,7.80
2012,05,29,04,07,7.80
2012,05,29,04,08,7.70
2012,05,29,04,09,7.70
2012,05,29,04,11,7.70
2012,05,29,04,12,7.70
2012,05,29,04,13,7.70
2012,05,29,04,14,7.70
2012,05,29,04,15,7.70
2012,05,29,04,16,7.70
2012,05,29,04,17,7.70
2012,05,29,04,18,7.70
2012,05,29,04,20,7.70
2012,05,29,04,21,7.60
2012,05,29,04,22,7.60
2012,05,29,04,23,7.60
2012,05,29,04,24,7.60
2012,05,29,04,25,7.60
2012,05,29,04,26,7.60
2012,05,29,04,27,7.60
2012,05,29,04,29,7.60
2012,05,29,04,30,7.60
2012,05,29,04,31,7.60
2012,05,29,04,32,7.60
2012,05,29,04,33,7.60
2012,05,29,04,34,7.60
2012,05,29,04,35,7.60
2012,05,29,04,36,7.60
2012,05,29,04,37,7.60
2012,05,29,04,38,7.60
2012,05,29,04,39,7.60
2012,05,29,04,40,7.60
2012,05,29,04,41,7.50
2012,05,29,04,43,7.60
2012,05,29,04,44,7.60
2012,05,29,04,45,7.60
2012,05,29,04,46,7.60
2012,05,29,04,47,7.60
2012,05,29,04,48,7.60
2012,05,29,04,49,7.60
2012,05,29,04,50,7.60
2012,05,29,04,52,7.50
2012,05,29,04,53,7.50
2012,05,29,04,54,7.50
2012,05,29,04,55,7.50
2012,05,29,04,57,7.50
2012,05,29,04,58,7.40
2012,05,29,04,59,7.40
2012,05,29,05,00,7.40
2012,05,29,05,01,7.40
2012,05,29,05,03,7.40
2012,05,29,05,04,7.40
2012,05,29,05,05,7.40
2012,05,29,05,07,7.40
2012,05,29,05,08,7.40
2012,05,29,05,09,7.40
2012,05,29,05,10,7.40
2012,05,29,05,12,7.40
2012,05,29,05,13,7.40
2012,05,29,05,14,7.40
2012,05,29,05,15,7.40
2012,05,29,05,17,7.30
2012,05,29,05,18,7.30
2012,05,29,05,19,7.30
2012,05,29,05,20,7.30
2012,05,29,05,22,7.30
2012,05,29,05,23,7.30
2012,05,29,05,24,7.30
2012,05,29,05,25,7.30
2012,05,29,05,26,7.30
2012,05,29,05,27,7.30
2012,05,29,05,28,7.40
2012,05,29,05,29,7.40
2012,05,29,05,31,7.30
2012,05,29,05,32,7.40
2012,05,29,05,33,7.40
2012,05,29,05,34,7.40
2012,05,29,05,36,7.40
2012,05,29,05,37,7.40
2012,05,29,05,38,7.40
2012,05,29,05,40,7.40
2012,05,29,05,41,7.40
2012,05,29,05,42,7.40
2012,05,29,05,43,7.40
2012,05,29,05,44,7.40
2012,05,29,05,46,7.40
2012,05,29,05,47,7.40
2012,05,29,05,48,7.40
2012,05,29,05,49,7.40
2012,05,29,05,50,7.40
2012,05,29,05,51,7.40
2012,05,29,05,52,7.40
2012,05,29,05,53,7.40
2012,05,29,05,54,7.40
2012,05,29,05,55,7.40
2012,05,29,05,56,7.40
2012,05,29,05,57,7.40
2012,05,29,05,58,7.50
2012,05,29,05,59,7.50
2012,05,29,06,00,7.50
2012,05,29,06,01,7.50
2012,05,29,06,02,7.50
2012,05,29,06,03,7.50
2012,05,29,06,04,7.50
2012,05,29,06,05,7.60
2012,05,29,06,06,7.60
2012,05,29,06,07,7.60
2012,05,29,06,08,7.60
2012,05,29,06,09,7.60
2012,05,29,06,10,7.60
2012,05,29,06,11,7.60
2012,05,29,06,12,7.60
2012,05,29,06,13,7.60
2012,05,29,06,14,7.60
2012,05,29,06,15,7.60
2012,05,29,06,16,7.60
2012,05,29,06,17,7.60
2012,05,29,06,19,7.60
2012,05,29,06,20,7.60
2012,05,29,06,21,7.60
2012,05,29,06,22,7.70
2012,05,29,06,23,7.70
2012,05,29,06,24,7.70
2012,05,29,06,25,7.70
2012,05,29,06,26,7.70
2012,05,29,06,27,7.70
2012,05,29,06,28,7.70
2012,05,29,06,30,7.70
2012,05,29,06,31,7.70
2012,05,29,06,32,7.80
2012,05,29,06,33,7.80
2012,05,29,06,34,7.80
2012,05,29,06,35,7.80
2012,05,29,06,36,7.80
2012,05,29,06,37,7.90
2012,05,29,06,38,7.90
2012,05,29,06,40,7.90
2012,05,29,06,41,8.00
2012,05,29,06,42,8.00
2012,05,29,06,43,8.10
2012,05,29,06,45,8.10
2012,05,29,06,46,8.10
2012,05,29,06,47,8.20
2012,05,29,06,48,8.20
2012,05,29,06,49,8.20
2012,05,29,06,50,8.20
2012,05,29,06,51,8.30
2012,05,29,06,52,8.30
2012,05,29,06,53,8.30
2012,05,29,06,54,8.30
2012,05,29,06,55,8.40
2012,05,29,06,56,8.40
2012,05,29,06,58,8.40
2012,05,29,06,59,8.40
2012,05,29,07,00,8.50
2012,05,29,07,01,8.50
2012,05,29,07,03,8.50
2012,05,29,07,04,8.50
2012,05,29,07,05,8.60
2012,05,29,07,06,8.60
2012,05,29,07,07,8.60
2012,05,29,07,08,8.60
2012,05,29,07,09,8.60
2012,05,29,07,10,8.60
2012,05,29,07,11,8.60
2012,05,29,07,12,8.70
2012,05,29,07,13,8.70
2012,05,29,07,14,8.70
2012,05,29,07,15,8.70
2012,05,29,07,16,8.80
2012,05,29,07,17,8.80
2012,05,29,07,18,8.80
2012,05,29,07,19,8.80
2012,05,29,07,20,8.90
2012,05,29,07,22,8.90
2012,05,29,07,23,9.00
2012,05,29,07,24,9.10
2012,05,29,07,25,9.10
2012,05,29,07,27,9.10
2012,05,29,07,28,9.20
2012,05,29,07,29,9.20
2012,05,29,07,31,9.20
2012,05,29,07,32,9.30
2012,05,29,07,33,9.30
2012,05,29,07,34,9.30
2012,05,29,07,35,9.40
2012,05,29,07,36,9.40
2012,05,29,07,37,9.40
2012,05,29,07,39,9.40
2012,05,29,07,40,9.40
2012,05,29,07,41,9.50
2012,05,29,07,42,9.60
2012,05,29,07,44,9.70
2012,05,29,07,45,9.80
2012,05,29,07,46,9.90
2012,05,29,07,47,9.90
2012,05,29,07,49,10.10
2012,05,29,07,50,10.10
2012,05,29,07,51,10.20
2012,05,29,07,52,10.30
2012,05,29,07,54,10.30
2012,05,29,07,55,10.40
2012,05,29,07,56,10.40
2012,05,29,07,57,10.40
2012,05,29,07,58,10.40
2012,05,29,07,59,10.30
2012,05,29,08,00,10.30
2012,05,29,08,01,10.30
2012,05,29,08,03,10.30
2012,05,29,08,04,10.30
2012,05,29,08,05,10.20
2012,05,29,08,06,10.20
2012,05,29,08,07,10.20
2012,05,29,08,08,10.20
2012,05,29,08,09,10.20
2012,05,29,08,10,10.20
2012,05,29,08,11,10.20
2012,05,29,08,12,10.20
2012,05,29,08,13,10.20
2012,05,29,08,14,10.30
2012,05,29,08,15,10.30
2012,05,29,08,16,10.30
2012,05,29,08,17,10.30
2012,05,29,08,18,10.30
2012,05,29,08,19,10.30
2012,05,29,08,20,10.30
2012,05,29,08,21,10.30
2012,05,29,08,23,10.30
2012,05,29,08,24,10.30
2012,05,29,08,25,10.40
2012,05,29,08,26,10.40
2012,05,29,08,27,10.40
2012,05,29,08,28,10.50
2012,05,29,08,29,10.50
2012,05,29,08,30,10.60
2012,05,29,08,32,10.60
2012,05,29,08,33,10.60
2012,05,29,08,34,10.60
2012,05,29,08,35,10.70
2012,05,29,08,36,10.70
2012,05,29,08,37,10.70
2012,05,29,08,38,10.70
2012,05,29,08,39,10.80
2012,05,29,08,40,10.80
2012,05,29,08,41,10.90
2012,05,29,08,42,10.90
2012,05,29,08,43,11.00
2012,05,29,08,44,11.10
2012,05,29,08,45,11.10
2012,05,29,08,46,11.10
2012,05,29,08,47,11.20
2012,05,29,08,48,11.20
2012,05,29,08,49,11.20
2012,05,29,08,50,11.20
2012,05,29,08,51,11.30
2012,05,29,08,53,11.30
2012,05,29,08,54,11.30
2012,05,29,08,55,11.20
2012,05,29,08,56,11.30
2012,05,29,08,58,11.30
2012,05,29,08,59,11.30
2012,05,29,09,00,11.30
2012,05,29,09,01,11.40
2012,05,29,09,02,11.50
2012,05,29,09,03,11.60
2012,05,29,09,04,11.60
2012,05,29,09,05,11.60
2012,05,29,09,06,11.60
2012,05,29,09,07,11.60
2012,05,29,09,08,11.60
2012,05,29,09,09,11.60
2012,05,29,09,10,11.60
2012,05,29,09,11,11.60
2012,05,29,09,12,11.60
2012,05,29,09,13,11.60
2012,05,29,09,14,11.70
2012,05,29,09,15,11.70
2012,05,29,09,16,11.70
2012,05,29,09,17,11.70
2012,05,29,09,18,11.80
2012,05,29,09,19,11.90
2012,05,29,09,20,12.00
2012,05,29,09,21,12.10
2012,05,29,09,22,12.20
2012,05,29,09,23,12.20
2012,05,29,09,24,12.20
2012,05,29,09,25,12.30
2012,05,29,09,26,12.40
2012,05,29,09,27,12.50
2012,05,29,09,28,12.40
2012,05,29,09,29,12.40
2012,05,29,09,30,12.40
2012,05,29,09,31,12.30
2012,05,29,09,32,12.20
2012,05,29,09,34,12.20
2012,05,29,09,35,12.10
2012,05,29,09,36,12.10
2012,05,29,09,37,12.10
2012,05,29,09,38,12.10
2012,05,29,09,39,12.10
2012,05,29,09,40,12.00
2012,05,29,09,41,12.00
2012,05,29,09,42,12.10
2012,05,29,09,43,12.10
2012,05,29,09,44,12.20
2012,05,29,09,45,12.30
2012,05,29,09,46,12.40
2012,05,29,09,47,12.50
2012,05,29,09,48,12.60
2012,05,29,09,49,12.60
2012,05,29,09,50,12.70
2012,05,29,09,51,12.80
2012,05,29,09,52,12.80
2012,05,29,09,54,12.90
2012,05,29,09,55,13.10
2012,05,29,09,56,13.10
2012,05,29,09,57,13.20
2012,05,29,09,59,13.20
2012,05,29,10,00,13.30
2012,05,29,10,01,13.40
2012,05,29,10,02,13.40
2012,05,29,10,04,13.60
2012,05,29,10,05,13.70
2012,05,29,10,06,13.70
2012,05,29,10,07,13.80
2012,05,29,10,08,13.90
2012,05,29,10,09,14.00
2012,05,29,10,10,14.10
2012,05,29,10,11,14.10
2012,05,29,10,13,14.10
2012,05,29,10,14,14.00
2012,05,29,10,15,13.90
2012,05,29,10,16,13.80
2012,05,29,10,17,13.80
2012,05,29,10,18,13.80
2012,05,29,10,19,13.90
2012,05,29,10,20,13.90
2012,05,29,10,21,13.90
2012,05,29,10,22,13.90
2012,05,29,10,23,13.90
2012,05,29,10,24,13.90
2012,05,29,10,25,13.90
2012,05,29,10,26,13.90
2012,05,29,10,27,13.90
2012,05,29,10,29,13.90
2012,05,29,10,31,13.90
2012,05,29,10,32,13.90
2012,05,29,10,33,13.90
2012,05,29,10,35,13.90
2012,05,29,10,36,13.80
2012,05,29,10,37,13.80
2012,05,29,10,38,13.80
2012,05,29,10,40,13.70
2012,05,29,10,41,13.60
2012,05,29,10,42,13.60
2012,05,29,10,44,13.60
2012,05,29,10,45,13.70
2012,05,29,10,46,13.60
2012,05,29,10,47,13.50
2012,05,29,10,48,13.40
2012,05,29,10,49,13.40
2012,05,29,10,50,13.40
2012,05,29,10,51,13.40
2012,05,29,10,52,13.30
2012,05,29,10,54,13.40
2012,05,29,10,55,13.40
2012,05,29,10,56,13.40
2012,05,29,10,57,13.40
2012,05,29,10,58,13.30
2012,05,29,10,59,13.30
2012,05,29,11,01,13.30
2012,05,29,11,02,13.20
2012,05,29,11,03,13.20
2012,05,29,11,04,13.10
2012,05,29,11,06,13.00
2012,05,29,11,07,13.10
2012,05,29,11,08,13.10
2012,05,29,11,09,13.10
2012,05,29,11,10,13.10
2012,05,29,11,12,13.00
2012,05,29,11,13,13.10
2012,05,29,11,14,13.10
2012,05,29,11,15,13.20
2012,05,29,11,17,13.20
2012,05,29,11,18,13.20
2012,05,29,11,19,13.20
2012,05,29,11,20,13.20
2012,05,29,11,22,13.20
2012,05,29,11,23,13.20
2012,05,29,11,24,13.10
2012,05,29,11,25,13.10
2012,05,29,11,27,13.10
2012,05,29,11,28,13.10
2012,05,29,11,29,12.90
2012,05,29,11,30,12.90
2012,05,29,11,32,12.80
2012,05,29,11,33,12.80
2012,05,29,11,34,12.70
2012,05,29,11,35,12.70
2012,05,29,11,36,12.70
2012,05,29,11,37,12.80
2012,05,29,11,39,12.80
2012,05,29,11,40,12.80
2012,05,29,11,41,12.80
2012,05,29,11,42,12.70
2012,05,29,11,44,12.70
2012,05,29,11,45,12.70
2012,05,29,11,46,12.70
2012,05,29,11,47,12.70
2012,05,29,11,48,12.70
2012,05,29,11,50,12.70
2012,05,29,11,51,12.70
2012,05,29,11,52,12.80
2012,05,29,11,54,12.70
2012,05,29,11,55,12.70
2012,05,29,11,56,12.70
2012,05,29,11,57,12.70
2012,05,29,11,59,12.70
2012,05,29,12,00,12.70
2012,05,29,12,01,12.70
2012,05,29,12,03,12.80
2012,05,29,12,04,12.80
2012,05,29,12,05,12.80
2012,05,29,12,06,12.80
2012,05,29,12,08,12.80
2012,05,29,12,09,12.80
2012,05,29,12,10,12.80
2012,05,29,12,11,12.80
2012,05,29,12,12,12.80
2012,05,29,12,13,12.80
2012,05,29,12,14,12.80
2012,05,29,12,15,12.80
2012,05,29,12,16,12.80
2012,05,29,12,18,12.80
2012,05,29,12,19,12.80
2012,05,29,12,20,12.90
2012,05,29,12,21,12.90
2012,05,29,12,22,12.90
2012,05,29,12,23,12.90
2012,05,29,12,24,12.90
2012,05,29,12,25,12.90
2012,05,29,12,27,12.90
2012,05,29,12,28,12.90
2012,05,29,12,29,13.00
2012,05,29,12,30,13.00
2012,05,29,12,32,13.10
2012,05,29,12,33,13.10
2012,05,29,12,34,13.10
2012,05,29,12,35,13.10
2012,05,29,12,37,13.10
2012,05,29,12,38,13.20
2012,05,29,12,39,13.30
2012,05,29,12,40,13.40
2012,05,29,12,42,13.40
2012,05,29,12,43,13.50
2012,05,29,12,44,13.60
2012,05,29,12,45,13.60
2012,05,29,12,46,13.50
2012,05,29,12,47,13.50
2012,05,29,12,48,13.50
2012,05,29,12,49,13.60
2012,05,29,12,50,13.70
2012,05,29,12,51,13.70
2012,05,29,12,52,13.70
2012,05,29,12,53,13.70
2012,05,29,12,54,13.60
2012,05,29,12,55,13.50
2012,05,29,12,56,13.50
2012,05,29,12,57,13.50
2012,05,29,12,58,13.50
2012,05,29,12,59,13.50
2012,05,29,13,00,13.50
2012,05,29,13,01,13.60
2012,05,29,13,02,13.60
2012,05,29,13,03,13.70
2012,05,29,13,04,13.70
2012,05,29,13,05,13.80
2012,05,29,13,07,13.90
2012,05,29,13,08,13.90
2012,05,29,13,09,13.90
2012,05,29,13,10,13.80
2012,05,29,13,11,13.80
2012,05,29,13,12,13.80
2012,05,29,13,13,13.80
2012,05,29,13,14,13.90
2012,05,29,13,15,13.90
2012,05,29,13,16,13.90
2012,05,29,13,17,13.90
2012,05,29,13,18,13.90
2012,05,29,13,19,13.90
2012,05,29,13,20,14.00
2012,05,29,13,21,14.10
2012,05,29,13,22,14.10
2012,05,29,13,23,14.20
2012,05,29,13,24,14.20
2012,05,29,13,25,14.20
2012,05,29,13,26,14.20
2012,05,29,13,27,14.20
2012,05,29,13,28,14.20
2012,05,29,13,29,14.20
2012,05,29,13,30,14.30
2012,05,29,13,32,14.30
2012,05,29,13,33,14.40
2012,05,29,13,34,14.40
2012,05,29,13,35,14.40
2012,05,29,13,37,14.50
2012,05,29,13,38,14.60
2012,05,29,13,39,14.70
2012,05,29,13,40,14.80
2012,05,29,13,42,14.90
2012,05,29,13,43,14.80
2012,05,29,13,44,14.80
2012,05,29,13,45,14.80
2012,05,29,13,47,14.80
2012,05,29,13,48,14.80
2012,05,29,13,49,14.70
2012,05,29,13,50,14.70
2012,05,29,13,52,14.60
2012,05,29,13,53,14.60
2012,05,29,13,54,14.70
2012,05,29,13,55,14.80
2012,05,29,13,57,14.80
2012,05,29,13,58,14.90
2012,05,29,13,59,15.00
2012,05,29,14,01,15.10
2012,05,29,14,02,15.10
2012,05,29,14,03,15.10
2012,05,29,14,04,15.10
2012,05,29,14,06,15.20
2012,05,29,14,07,15.30
2012,05,29,14,08,15.40
2012,05,29,14,09,15.40
2012,05,29,14,10,15.50
2012,05,29,14,11,15.50
2012,05,29,14,12,15.60
2012,05,29,14,14,15.60
2012,05,29,14,15,15.70
2012,05,29,14,16,15.70
2012,05,29,14,17,15.60
2012,05,29,14,19,15.40
2012,05,29,14,20,15.40
2012,05,29,14,21,15.40
2012,05,29,14,22,15.30
2012,05,29,14,24,15.30
2012,05,29,14,25,15.10
2012,05,29,14,26,15.10
2012,05,29,14,27,15.00
2012,05,29,14,28,14.90
2012,05,29,14,30,14.90
2012,05,29,14,31,14.80
2012,05,29,14,32,14.80
2012,05,29,14,33,14.80
2012,05,29,14,34,14.80
2012,05,29,14,35,14.80
2012,05,29,14,36,14.90
2012,05,29,14,37,14.90
2012,05,29,14,39,14.90
2012,05,29,14,40,14.90
2012,05,29,14,41,14.80
2012,05,29,14,42,14.80
2012,05,29,14,43,14.80
2012,05,29,14,44,14.80
2012,05,29,14,45,14.70
2012,05,29,14,46,14.70
2012,05,29,14,47,14.80
2012,05,29,14,48,14.90
2012,05,29,14,50,14.90
2012,05,29,14,51,15.10
2012,05,29,14,52,15.10
2012,05,29,14,53,15.20
2012,05,29,14,55,15.30
2012,05,29,14,56,15.40
2012,05,29,14,57,15.40
2012,05,29,14,58,15.50
2012,05,29,15,00,15.60
2012,05,29,15,01,15.30
2012,05,29,15,02,15.30
2012,05,29,15,04,15.20
2012,05,29,15,05,15.30
2012,05,29,15,06,15.30
2012,05,29,15,07,15.30
2012,05,29,15,08,15.40
2012,05,29,15,10,15.40
2012,05,29,15,11,15.40
2012,05,29,15,12,15.40
2012,05,29,15,13,15.40
2012,05,29,15,14,15.40
2012,05,29,15,15,15.40
2012,05,29,15,16,15.30
2012,05,29,15,17,15.30
2012,05,29,15,18,15.20
2012,05,29,15,19,15.10
2012,05,29,15,20,15.00
2012,05,29,15,21,14.80
2012,05,29,15,23,14.70
2012,05,29,15,24,14.60
2012,05,29,15,25,14.70
2012,05,29,15,26,14.60
2012,05,29,15,28,14.70
2012,05,29,15,29,14.70
2012,05,29,15,30,14.80
2012,05,29,15,31,14.80
2012,05,29,15,32,14.80
2012,05,29,15,33,14.80
2012,05,29,15,34,14.90
2012,05,29,15,35,14.90
2012,05,29,15,37,14.90
2012,05,29,15,38,15.00
2012,05,29,15,39,15.10
2012,05,29,15,40,15.10
2012,05,29,15,42,15.20
2012,05,29,15,43,15.20
2012,05,29,15,44,15.10
2012,05,29,15,45,15.10
2012,05,29,15,46,15.20
2012,05,29,15,47,15.20
2012,05,29,15,48,15.20
2012,05,29,15,49,15.30
2012,05,29,15,50,15.30
2012,05,29,15,51,15.30
2012,05,29,15,52,15.30
2012,05,29,15,53,15.40
2012,05,29,15,54,15.40
2012,05,29,15,55,15.40
2012,05,29,15,56,15.30
2012,05,29,15,58,15.30
2012,05,29,15,59,15.30
2012,05,29,16,00,15.30
2012,05,29,16,01,15.30
2012,05,29,16,03,15.30
2012,05,29,16,04,15.20
2012,05,29,16,05,15.30
2012,05,29,16,06,15.30
2012,05,29,16,07,15.30
2012,05,29,16,08,15.30
2012,05,29,16,09,15.30
2012,05,29,16,10,15.20
2012,05,29,16,11,15.00
2012,05,29,16,13,14.80
2012,05,29,16,14,14.70
2012,05,29,16,15,14.60
2012,05,29,16,16,14.60
2012,05,29,16,17,14.60
2012,05,29,16,18,14.50
2012,05,29,16,20,14.50
2012,05,29,16,21,14.60
2012,05,29,16,22,14.60
2012,05,29,16,23,14.60
2012,05,29,16,25,14.70
2012,05,29,16,26,14.80
2012,05,29,16,27,14.80
2012,05,29,16,28,14.80
2012,05,29,16,29,14.80
2012,05,29,16,30,14.80
2012,05,29,16,31,14.80
2012,05,29,16,32,14.80
2012,05,29,16,33,14.80
2012,05,29,16,34,14.80
2012,05,29,16,36,14.80
2012,05,29,16,37,14.70
2012,05,29,16,38,14.70
2012,05,29,16,39,14.70
2012,05,29,16,40,14.60
2012,05,29,16,41,14.50
2012,05,29,16,42,14.40
2012,05,29,16,43,14.30
2012,05,29,16,44,14.30
2012,05,29,16,46,14.30
2012,05,29,16,47,14.30
2012,05,29,16,48,14.30
2012,05,29,16,49,14.30
2012,05,29,16,51,14.30
2012,05,29,16,52,14.20
2012,05,29,16,53,14.00
2012,05,29,16,54,13.90
2012,05,29,16,56,13.70
2012,05,29,16,57,13.60
2012,05,29,16,58,13.50
2012,05,29,16,59,13.50
2012,05,29,17,00,13.60
2012,05,29,17,01,13.60
2012,05,29,17,02,13.60
2012,05,29,17,03,13.60
2012,05,29,17,04,13.60
2012,05,29,17,05,13.60
2012,05,29,17,06,13.60
2012,05,29,17,08,13.70
2012,05,29,17,09,13.70
2012,05,29,17,10,13.70
2012,05,29,17,11,13.80
2012,05,29,17,13,13.80
2012,05,29,17,14,13.80
2012,05,29,17,15,13.90
2012,05,29,17,16,13.90
2012,05,29,17,18,13.90
2012,05,29,17,19,13.90
2012,05,29,17,20,13.80
2012,05,29,17,21,13.80
2012,05,29,17,22,13.80
2012,05,29,17,23,13.70
2012,05,29,17,24,13.70
2012,05,29,17,25,13.60
2012,05,29,17,27,13.60
2012,05,29,17,28,13.40
2012,05,29,17,29,13.40
2012,05,29,17,30,13.40
2012,05,29,17,31,13.40
2012,05,29,17,33,13.40
2012,05,29,17,34,13.40
2012,05,29,17,35,13.40
2012,05,29,17,37,13.40
2012,05,29,17,38,13.40
2012,05,29,17,39,13.40
2012,05,29,17,40,13.30
2012,05,29,17,41,13.30
2012,05,29,17,43,13.20
2012,05,29,17,44,13.20
2012,05,29,17,45,13.20
2012,05,29,17,46,13.10
2012,05,29,17,47,13.10
2012,05,29,17,49,13.00
2012,05,29,17,50,13.00
2012,05,29,17,51,12.90
2012,05,29,17,52,12.90
2012,05,29,17,54,12.90
2012,05,29,17,55,12.90
2012,05,29,17,56,12.90
2012,05,29,17,57,12.90
2012,05,29,17,59,13.00
2012,05,29,18,00,13.10
2012,05,29,18,01,13.20
2012,05,29,18,02,13.30
2012,05,29,18,04,13.30
2012,05,29,18,05,13.20
2012,05,29,18,06,13.20
2012,05,29,18,08,13.20
2012,05,29,18,09,13.20
2012,05,29,18,10,13.20
2012,05,29,18,11,13.20
2012,05,29,18,12,13.10
2012,05,29,18,14,13.10
2012,05,29,18,15,13.00
2012,05,29,18,16,12.90
2012,05,29,18,17,12.90
2012,05,29,18,19,12.80
2012,05,29,18,20,12.80
2012,05,29,18,21,12.90
2012,05,29,18,22,12.90
2012,05,29,18,23,12.90
2012,05,29,18,25,12.90
2012,05,29,18,26,12.90
2012,05,29,18,27,12.90
2012,05,29,18,28,12.90
2012,05,29,18,30,12.90
2012,05,29,18,31,12.90
2012,05,29,18,32,12.90
2012,05,29,18,33,12.90
2012,05,29,18,35,12.90
2012,05,29,18,36,13.00
2012,05,29,18,37,13.00
2012,05,29,18,38,13.00
2012,05,29,18,39,13.00
2012,05,29,18,40,13.00
2012,05,29,18,41,13.00
2012,05,29,18,42,13.10
2012,05,29,18,43,13.10
2012,05,29,18,44,13.10
2012,05,29,18,45,13.10
2012,05,29,18,46,13.10
2012,05,29,18,47,13.00
2012,05,29,18,48,12.90
2012,05,29,18,50,12.90
2012,05,29,18,51,12.80
2012,05,29,18,52,12.80
2012,05,29,18,53,12.70
2012,05,29,18,55,12.70
2012,05,29,18,56,12.60
2012,05,29,18,57,12.60
2012,05,29,18,58,12.60
2012,05,29,18,59,12.50
2012,05,29,19,00,12.50
2012,05,29,19,01,12.40
2012,05,29,19,02,12.40
2012,05,29,19,04,12.30
2012,05,29,19,05,12.30
2012,05,29,19,06,12.20
2012,05,29,19,07,12.20
2012,05,29,19,08,12.20
2012,05,29,19,09,12.20
2012,05,29,19,10,12.20
2012,05,29,19,11,12.20
2012,05,29,19,12,12.10
2012,05,29,19,13,12.10
2012,05,29,19,14,12.10
2012,05,29,19,15,12.10
2012,05,29,19,16,12.10
2012,05,29,19,17,12.10
2012,05,29,19,18,12.00
2012,05,29,19,19,12.00
2012,05,29,19,20,12.00
2012,05,29,19,21,11.90
2012,05,29,19,23,11.90
2012,05,29,19,24,11.90
2012,05,29,19,25,11.90
2012,05,29,19,26,11.80
2012,05,29,19,28,11.80
2012,05,29,19,29,11.80
2012,05,29,19,30,11.80
2012,05,29,19,31,11.80
2012,05,29,19,33,11.80
2012,05,29,19,34,11.70
2012,05,29,19,35,11.70
2012,05,29,19,37,11.70
2012,05,29,19,38,11.70
2012,05,29,19,39,11.60
2012,05,29,19,40,11.60
2012,05,29,19,41,11.60
2012,05,29,19,42,11.60
2012,05,29,19,43,11.60
2012,05,29,19,44,11.60
2012,05,29,19,45,11.50
2012,05,29,19,46,11.50
2012,05,29,19,47,11.50
2012,05,29,19,48,11.50
2012,05,29,19,49,11.50
2012,05,29,19,50,11.50
2012,05,29,19,52,11.50
2012,05,29,19,53,11.40
2012,05,29,19,54,11.40
2012,05,29,19,55,11.40
2012,05,29,19,56,11.40
2012,05,29,19,57,11.40
2012,05,29,19,58,11.40
2012,05,29,19,59,11.40
2012,05,29,20,00,11.40
2012,05,29,20,01,11.40
2012,05,29,20,02,11.40
2012,05,29,20,03,11.40
2012,05,29,20,04,11.40
2012,05,29,20,05,11.40
2012,05,29,20,06,11.40
2012,05,29,20,07,11.40
2012,05,29,20,08,11.40
2012,05,29,20,09,11.40
2012,05,29,20,10,11.40
2012,05,29,20,11,11.40
2012,05,29,20,12,11.30
2012,05,29,20,13,11.30
2012,05,29,20,14,11.30
2012,05,29,20,15,11.30
2012,05,29,20,16,11.30
2012,05,29,20,17,11.30
2012,05,29,20,18,11.30
2012,05,29,20,19,11.30